Wind_Speed
10 8 6 6 5 4 3 4 4 4 4 4 4 5 7 5 6 5 5 6 5 6
12 11 9 8 7 7 7 7 6 6 5 5 5 5 7 6 7 7 6 6 6 7
12 12 10 9 8 8 8 8 8 8 8 8 7 7 7 6 7 8 8 8 8 8
11 11 11 11 10 11 10 10 10 10 10 10 10 10 10 9 10 10 11 11 11 11
12 11 11 10 11 10 11 12 12 12 12 12 12 12 12 12 12 13 14 14 14 15
13 13 13 12 13 12 12 13 13 13 14 14 14 15 14 14 14 15 16 17 17 18
12 12 12 12 13 14 14 14 14 15 15 16 16 16 16 15 15 16 18 18 20 21
9 11 13 13 14 14 14 15 15 15 15 16 16 16 15 15 17 20 22 22 23 23
9 10 11 11 12 13 14 14 14 15 16 18 18 17 17 19 21 22 23 25 25 25
5 5 7 8 10 11 12 13 15 17 18 20 21 19 19 20 22 22 23 24 25 26
9 8 9 10 12 13 14 15 16 18 19 20 22 18 19 20 22 21 22 24 25 26
12 13 13 14 15 15 15 16 17 16 19 20 22 19 19 20 22 22 23 23 24 26
13 14 16 16 17 16 15 16 15 16 17 20 23 22 21 20 22 23 24 24 26 27
13 15 16 16 15 16 16 15 18 19 21 22 23 24 21 22 24 24 26 27 27 27
Wind_Direction
196 199 210 215 227 233 239 259 291 314 330 344 353 353 348 358 351 351 349 349 343 335
210 211 214 228 235 244 251 258 270 287 303 309 320 330 334 326 329 326 326 317 310 314
223 224 228 235 242 250 258 267 274 283 287 295 302 306 307 305 300 301 298 290 288 290
235 236 235 236 242 250 256 263 268 273 278 285 290 292 291 289 292 289 288 284 284 284
241 242 244 251 252 255 263 265 265 268 274 276 278 279 282 287 285 288 288 287 286 286
250 249 251 256 259 260 264 269 274 275 276 276 276 279 282 284 287 285 283 284 284 285
253 258 259 257 261 264 267 271 276 279 282 284 287 287 290 290 287 284 284 283 281 280
262 255 260 268 270 269 271 274 277 279 280 283 286 291 295 291 291 289 287 284 282 280
277 273 272 267 266 271 275 279 282 284 286 287 287 288 285 284 286 285 284 285 285 285
323 302 288 284 283 284 284 284 285 287 289 290 291 292 291 291 288 287 287 286 286 286
321 312 303 298 297 296 295 294 293 292 292 291 291 292 292 292 291 289 286 285 284 283
315 309 305 303 303 300 297 294 291 289 292 290 293 294 292 292 292 289 285 285 283 281
308 303 302 302 301 298 292 290 290 288 284 286 284 288 289 290 288 285 285 285 284 285
299 298 302 301 298 293 293 288 290 287 291 293 293 293 289 288 287 286 285 281 281 283
Height
878 881 883 885 887 888 889 889 889 889 888 887 886 886 886 886 885 884 882 881 881 880
876 877 879 881 884 885 886 887 886 887 886 886 885 885 885 886 884 883 882 881 880 879
876 876 878 879 881 882 883 884 884 884 885 885 884 883 884 885 884 883 881 880 879 878
880 878 877 877 878 879 880 880 881 882 882 881 882 882 882 882 881 881 880 878 876 875
880 879 879 879 879 879 878 879 878 878 878 877 877 878 878 877 877 877 876 874 872 870
878 877 877 878 878 878 878 878 877 876 875 874 874 873 873 871 871 871 871 869 867 865
875 875 875 875 875 875 875 875 874 873 872 872 870 869 868 867 866 866 866 864 862 861
872 872 872 872 872 872 871 870 870 869 868 867 867 866 865 865 864 863 860 859 857 855
869 869 869 869 869 869 868 867 865 864 863 862 861 860 861 861 859 857 855 852 850 848
869 868 867 867 866 865 864 863 862 861 859 857 856 855 855 855 853 851 848 846 844 841
868 867 866 865 864 863 861 860 857 856 855 853 852 851 851 849 847 844 842 840 838 835
866 865 863 862 860 859 857 856 854 852 850 849 848 846 846 844 842 838 836 834 832 829
865 863 861 859 857 856 854 852 850 848 847 845 843 842 840 839 836 833 830 827 824 821
863 860 858 855 854 852 850 848 846 844 842 839 837 834 834 832 830 826 822 818 814 812